Time,TemperatureF,DewpointF,PressureIn,WindDirection,WindDirectionDegrees,WindSpeedMPH,WindSpeedGustMPH,Humidity,HourlyPrecipIn,Conditions,Clouds,dailyrainin,SoftwareType,DateUTC
2013-03-03 00:00:00,26.6,22.7,29.94,West,270,0.7,1.8,85,0.00,,,0.00,WUHU216HW,2013-03-03 05:00:00,
2013-03-03 00:05:00,26.6,22.7,29.94,West,270,1.1,4.5,85,0.00,,,0.00,WUHU216HW,2013-03-03 05:05:00,
2013-03-03 00:10:00,26.5,22.5,29.94,NW,315,0.4,4.5,85,0.00,,,0.00,WUHU216HW,2013-03-03 05:10:00,
2013-03-03 00:15:00,26.5,22.5,29.94,West,270,1.6,1.8,85,0.00,,,0.00,WUHU216HW,2013-03-03 05:15:00,
2013-03-03 00:20:00,26.5,22.5,29.94,WNW,293,0.9,3.6,85,0.00,,,0.00,WUHU216HW,2013-03-03 05:20:00,
2013-03-03 00:25:00,26.5,22.5,29.94,WNW,293,0.7,3.6,85,0.00,,,0.00,WUHU216HW,2013-03-03 05:25:00,
2013-03-03 00:30:00,26.5,22.5,29.94,West,270,1.1,2.9,85,0.00,,,0.00,WUHU216HW,2013-03-03 05:30:00,
2013-03-03 00:35:00,26.3,22.3,29.94,NNW,338,0.2,2.9,85,0.00,,,0.00,WUHU216HW,2013-03-03 05:35:00,
2013-03-03 00:40:00,26.5,22.5,29.94,NW,315,1.3,2.5,85,0.00,,,0.00,WUHU216HW,2013-03-03 05:40:00,
2013-03-03 00:45:00,26.5,22.5,29.94,West,270,1.6,2.5,85,0.00,,,0.00,WUHU216HW,2013-03-03 05:45:00,
2013-03-03 00:50:00,26.5,22.5,29.94,NW,315,2.2,2.7,85,0.00,,,0.00,WUHU216HW,2013-03-03 05:50:00,
2013-03-03 00:55:00,26.3,22.3,29.94,WNW,293,1.3,2.7,85,0.00,,,0.00,WUHU216HW,2013-03-03 05:55:00,
2013-03-03 01:00:00,26.3,22.3,29.94,West,270,0.7,3.6,85,0.00,,,0.00,WUHU216HW,2013-03-03 06:00:00,
2013-03-03 01:05:00,26.3,22.3,29.94,West,270,1.3,3.6,85,0.00,,,0.00,WUHU216HW,2013-03-03 06:05:00,
2013-03-03 01:10:00,26.3,22.3,29.94,NW,315,0.7,4.5,85,0.00,,,0.00,WUHU216HW,2013-03-03 06:10:00,
2013-03-03 01:15:00,26.3,22.1,29.94,West,270,1.8,4.5,84,0.00,,,0.00,WUHU216HW,2013-03-03 06:15:00,
2013-03-03 01:20:00,26.3,22.1,29.94,WNW,293,1.1,3.1,84,0.00,,,0.00,WUHU216HW,2013-03-03 06:20:00,
2013-03-03 01:25:00,26.3,22.1,29.94,NNW,338,2.2,3.1,84,0.00,,,0.00,WUHU216HW,2013-03-03 06:25:00,
2013-03-03 01:30:00,26.3,22.1,29.94,WSW,248,0.9,3.1,84,0.00,,,0.00,WUHU216HW,2013-03-03 06:30:00,
2013-03-03 01:35:00,26.3,22.1,29.94,NNW,338,3.4,3.4,84,0.00,,,0.00,WUHU216HW,2013-03-03 06:35:00,
2013-03-03 01:40:00,26.3,22.1,29.94,West,270,1.1,3.4,84,0.00,,,0.00,WUHU216HW,2013-03-03 06:40:00,
2013-03-03 01:45:00,26.3,22.1,29.94,WSW,248,2.2,2.2,84,0.00,,,0.00,WUHU216HW,2013-03-03 06:45:00,
2013-03-03 01:50:00,26.3,22.1,29.94,WNW,293,0.2,2.2,84,0.00,,,0.00,WUHU216HW,2013-03-03 06:50:00,
2013-03-03 01:55:00,26.3,22.1,29.94,WSW,248,2.7,2.7,84,0.00,,,0.00,WUHU216HW,2013-03-03 06:55:00,
2013-03-03 02:00:00,26.3,22.1,29.94,NW,315,1.6,2.7,84,0.00,,,0.00,WUHU216HW,2013-03-03 07:00:00,
2013-03-03 02:05:00,26.1,21.9,29.94,NW,315,1.6,2.7,84,0.00,,,0.00,WUHU216HW,2013-03-03 07:05:00,
2013-03-03 02:10:00,26.1,21.9,29.94,WNW,293,2.2,2.7,84,0.00,,,0.00,WUHU216HW,2013-03-03 07:10:00,
2013-03-03 02:15:00,26.1,21.9,29.94,WNW,293,2.9,2.9,84,0.00,,,0.00,WUHU216HW,2013-03-03 07:15:00,
2013-03-03 02:20:00,26.1,21.9,29.94,West,270,1.8,2.9,84,0.00,,,0.00,WUHU216HW,2013-03-03 07:20:00,
2013-03-03 02:25:00,25.9,21.7,29.94,WNW,293,1.1,2.5,84,0.00,,,0.00,WUHU216HW,2013-03-03 07:25:00,
2013-03-03 02:30:00,25.9,21.7,29.94,NW,315,3.8,3.8,84,0.00,,,0.00,WUHU216HW,2013-03-03 07:30:00,
2013-03-03 02:35:00,25.9,21.7,29.94,WNW,293,0.4,3.8,84,0.00,,,0.00,WUHU216HW,2013-03-03 07:35:00,
2013-03-03 02:40:00,25.9,21.7,29.94,NW,315,0.0,2.0,84,0.00,,,0.00,WUHU216HW,2013-03-03 07:40:00,
2013-03-03 02:45:00,25.9,21.7,29.93,West,270,1.8,1.8,84,0.00,,,0.00,WUHU216HW,2013-03-03 07:45:00,
2013-03-03 02:50:00,25.9,21.7,29.93,NW,315,2.9,3.8,84,0.00,,,0.00,WUHU216HW,2013-03-03 07:50:00,
2013-03-03 02:55:00,25.7,21.5,29.93,West,270,1.8,3.8,84,0.00,,,0.00,WUHU216HW,2013-03-03 07:55:00,
2013-03-03 03:00:00,25.7,21.5,29.93,WNW,293,0.2,3.4,84,0.00,,,0.00,WUHU216HW,2013-03-03 08:00:00,
2013-03-03 03:05:00,25.7,21.5,29.93,WNW,293,0.2,1.8,84,0.00,,,0.00,WUHU216HW,2013-03-03 08:05:00,
2013-03-03 03:10:00,25.6,21.7,29.93,West,270,0.2,2.5,85,0.00,,,0.00,WUHU216HW,2013-03-03 08:10:00,
2013-03-03 03:15:00,25.6,21.7,29.93,WNW,293,2.9,2.9,85,0.00,,,0.00,WUHU216HW,2013-03-03 08:15:00,
2013-03-03 03:20:00,25.6,21.7,29.93,WNW,293,2.2,2.9,85,0.00,,,0.00,WUHU216HW,2013-03-03 08:20:00,
2013-03-03 03:25:00,25.6,21.7,29.93,West,270,1.1,2.2,85,0.00,,,0.00,WUHU216HW,2013-03-03 08:25:00,
2013-03-03 03:30:00,25.6,22.0,29.93,NW,315,0.4,1.3,86,0.00,,,0.00,WUHU216HW,2013-03-03 08:30:00,
2013-03-03 03:35:00,25.6,22.0,29.93,West,270,0.4,1.3,86,0.00,,,0.00,WUHU216HW,2013-03-03 08:35:00,
2013-03-03 03:40:00,25.6,22.0,29.93,WNW,293,0.2,2.9,86,0.00,,,0.00,WUHU216HW,2013-03-03 08:40:00,
2013-03-03 03:45:00,25.6,22.2,29.92,West,270,0.2,2.9,87,0.00,,,0.00,WUHU216HW,2013-03-03 08:45:00,
2013-03-03 03:50:00,25.6,22.2,29.92,NW,315,1.3,2.5,87,0.00,,,0.00,WUHU216HW,2013-03-03 08:50:00,
2013-03-03 03:55:00,25.6,22.2,29.92,West,270,0.0,4.3,87,0.00,,,0.00,WUHU216HW,2013-03-03 08:55:00,
2013-03-03 04:00:00,25.6,22.2,29.93,SW,225,0.7,4.3,87,0.00,,,0.00,WUHU216HW,2013-03-03 09:00:00,
2013-03-03 04:05:00,25.6,22.2,29.93,WNW,293,1.3,2.5,87,0.00,,,0.00,WUHU216HW,2013-03-03 09:05:00,
2013-03-03 04:10:00,25.6,22.2,29.93,NW,315,1.6,2.5,87,0.00,,,0.00,WUHU216HW,2013-03-03 09:10:00,
2013-03-03 04:15:00,25.6,22.0,29.93,NW,315,1.1,2.2,86,0.00,,,0.00,WUHU216HW,2013-03-03 09:15:00,
2013-03-03 04:20:00,25.6,22.0,29.93,WNW,293,1.6,4.7,86,0.00,,,0.00,WUHU216HW,2013-03-03 09:20:00,
2013-03-03 04:25:00,25.4,21.5,29.93,West,270,5.1,5.1,85,0.00,,,0.00,WUHU216HW,2013-03-03 09:25:00,
2013-03-03 04:30:00,25.4,21.5,29.94,NW,315,2.7,5.1,85,0.00,,,0.00,WUHU216HW,2013-03-03 09:30:00,
2013-03-03 04:35:00,25.4,21.5,29.94,WNW,293,0.4,2.9,85,0.00,,,0.00,WUHU216HW,2013-03-03 09:35:00,
2013-03-03 04:40:00,25.4,21.5,29.93,NE,45,0.4,2.9,85,0.00,,,0.00,WUHU216HW,2013-03-03 09:40:00,
2013-03-03 04:45:00,25.2,21.1,29.94,West,270,1.1,2.2,84,0.00,,,0.00,WUHU216HW,2013-03-03 09:45:00,
2013-03-03 04:50:00,25.2,21.3,29.94,WNW,293,0.4,2.9,85,0.00,,,0.00,WUHU216HW,2013-03-03 09:50:00,
2013-03-03 04:55:00,25.2,21.3,29.94,NW,315,0.2,2.9,85,0.00,,,0.00,WUHU216HW,2013-03-03 09:55:00,
2013-03-03 05:00:00,25.2,21.3,29.94,NW,315,0.7,5.4,85,0.00,,,0.00,WUHU216HW,2013-03-03 10:00:00,
2013-03-03 05:05:00,25.0,20.9,29.94,West,270,2.2,5.4,84,0.00,,,0.00,WUHU216HW,2013-03-03 10:05:00,
2013-03-03 05:10:00,24.8,20.4,29.94,WNW,293,3.4,3.8,83,0.00,,,0.00,WUHU216HW,2013-03-03 10:10:00,
2013-03-03 05:15:00,24.8,20.4,29.94,WNW,293,0.9,3.8,83,0.00,,,0.00,WUHU216HW,2013-03-03 10:15:00,
2013-03-03 05:20:00,24.8,20.4,29.94,NW,315,0.0,2.5,83,0.00,,,0.00,WUHU216HW,2013-03-03 10:20:00,
2013-03-03 05:25:00,24.8,20.4,29.94,West,270,1.8,3.6,83,0.00,,,0.00,WUHU216HW,2013-03-03 10:25:00,
2013-03-03 05:30:00,24.7,20.3,29.94,West,270,0.0,3.6,83,0.00,,,0.00,WUHU216HW,2013-03-03 10:30:00,
2013-03-03 05:35:00,24.7,20.3,29.94,West,270,2.0,4.0,83,0.00,,,0.00,WUHU216HW,2013-03-03 10:35:00,
2013-03-03 05:40:00,24.7,20.3,29.94,NW,315,0.2,4.0,83,0.00,,,0.00,WUHU216HW,2013-03-03 10:40:00,
2013-03-03 05:45:00,24.5,20.1,29.94,West,270,0.2,1.6,83,0.00,,,0.00,WUHU216HW,2013-03-03 10:45:00,
2013-03-03 05:50:00,24.5,20.1,29.95,WNW,293,1.1,1.6,83,0.00,,,0.00,WUHU216HW,2013-03-03 10:50:00,
2013-03-03 05:55:00,24.5,19.8,29.95,WNW,293,0.4,2.9,82,0.00,,,0.00,WUHU216HW,2013-03-03 10:55:00,
2013-03-03 06:00:00,24.3,19.6,29.95,NNE,23,0.7,2.9,82,0.00,,,0.00,WUHU216HW,2013-03-03 11:00:00,
2013-03-03 06:05:00,24.3,19.6,29.95,NNW,338,1.3,2.0,82,0.00,,,0.00,WUHU216HW,2013-03-03 11:05:00,
2013-03-03 06:10:00,24.3,19.4,29.95,West,270,0.2,2.0,81,0.00,,,0.00,WUHU216HW,2013-03-03 11:10:00,
2013-03-03 06:15:00,24.3,19.4,29.95,WNW,293,0.4,2.0,81,0.00,,,0.00,WUHU216HW,2013-03-03 11:15:00,
2013-03-03 06:20:00,24.1,19.2,29.95,WNW,293,0.0,1.8,81,0.00,,,0.00,WUHU216HW,2013-03-03 11:20:00,
2013-03-03 06:25:00,24.1,18.9,29.95,NNW,338,0.4,1.8,80,0.00,,,0.00,WUHU216HW,2013-03-03 11:25:00,
2013-03-03 06:30:00,24.1,19.2,29.95,WSW,248,0.7,1.8,81,0.00,,,0.00,WUHU216HW,2013-03-03 11:30:00,
2013-03-03 06:35:00,24.1,19.2,29.95,NW,315,1.8,2.5,81,0.00,,,0.00,WUHU216HW,2013-03-03 11:35:00,
2013-03-03 06:40:00,24.1,19.2,29.95,NNW,338,1.1,2.5,81,0.00,,,0.00,WUHU216HW,2013-03-03 11:40:00,
2013-03-03 06:45:00,24.1,19.2,29.95,West,270,1.3,2.5,81,0.00,,,0.00,WUHU216HW,2013-03-03 11:45:00,
2013-03-03 06:50:00,24.1,19.4,29.95,West,270,1.8,2.7,82,0.00,,,0.00,WUHU216HW,2013-03-03 11:50:00,
2013-03-03 06:55:00,24.1,19.2,29.95,NNW,338,0.9,4.5,81,0.00,,,0.00,WUHU216HW,2013-03-03 11:55:00,
2013-03-03 07:00:00,23.9,19.0,29.95,WNW,293,3.4,4.5,81,0.00,,,0.00,WUHU216HW,2013-03-03 12:00:00,
2013-03-03 07:05:00,23.9,18.7,29.95,SW,225,0.0,3.8,80,0.00,,,0.00,WUHU216HW,2013-03-03 12:05:00,
2013-03-03 07:10:00,23.9,18.7,29.95,NW,315,0.0,3.4,80,0.00,,,0.00,WUHU216HW,2013-03-03 12:10:00,
2013-03-03 07:15:00,23.9,18.4,29.96,West,270,2.7,2.7,79,0.00,,,0.00,WUHU216HW,2013-03-03 12:15:00,
2013-03-03 07:20:00,23.9,18.4,29.96,NNW,338,0.9,4.0,79,0.00,,,0.00,WUHU216HW,2013-03-03 12:20:00,
2013-03-03 07:25:00,23.9,17.8,29.96,WNW,293,1.8,4.0,77,0.00,,,0.00,WUHU216HW,2013-03-03 12:25:00,
2013-03-03 07:30:00,24.1,17.9,29.96,West,270,2.5,3.6,77,0.00,,,0.00,WUHU216HW,2013-03-03 12:30:00,
2013-03-03 07:35:00,24.1,17.7,29.96,South,180,0.4,3.6,76,0.00,,,0.00,WUHU216HW,2013-03-03 12:35:00,
2013-03-03 07:40:00,24.1,17.7,29.96,WNW,293,0.4,2.5,76,0.00,,,0.00,WUHU216HW,2013-03-03 12:40:00,
2013-03-03 07:45:00,24.3,17.5,29.96,NW,315,2.0,2.2,75,0.00,,,0.00,WUHU216HW,2013-03-03 12:45:00,
2013-03-03 07:50:00,24.5,17.6,29.96,West,270,2.9,2.9,75,0.00,,,0.00,WUHU216HW,2013-03-03 12:50:00,
2013-03-03 07:55:00,24.7,17.6,29.96,West,270,0.9,2.9,74,0.00,,,0.00,WUHU216HW,2013-03-03 12:55:00,
2013-03-03 08:00:00,24.5,17.4,29.96,NW,315,4.5,4.5,74,0.00,,,0.00,WUHU216HW,2013-03-03 13:00:00,
2013-03-03 08:05:00,24.7,17.6,29.97,NNW,338,2.2,4.5,74,0.00,,,0.00,WUHU216HW,2013-03-03 13:05:00,
2013-03-03 08:10:00,24.8,18.0,29.96,West,270,0.2,4.3,75,0.00,,,0.00,WUHU216HW,2013-03-03 13:10:00,
2013-03-03 08:15:00,24.8,18.0,29.96,WNW,293,0.2,4.3,75,0.00,,,0.00,WUHU216HW,2013-03-03 13:15:00,
2013-03-03 08:20:00,25.2,18.6,29.96,WNW,293,1.8,2.0,76,0.00,,,0.00,WUHU216HW,2013-03-03 13:20:00,
2013-03-03 08:25:00,25.2,18.4,29.96,WNW,293,1.8,2.2,75,0.00,,,0.00,WUHU216HW,2013-03-03 13:25:00,
2013-03-03 08:30:00,25.2,18.4,29.96,West,270,4.5,4.5,75,0.00,,,0.00,WUHU216HW,2013-03-03 13:30:00,
2013-03-03 08:35:00,25.2,18.6,29.96,NW,315,3.4,4.5,76,0.00,,,0.00,WUHU216HW,2013-03-03 13:35:00,
2013-03-03 08:40:00,25.4,18.8,29.96,WNW,293,4.3,6.5,76,0.00,,,0.00,WUHU216HW,2013-03-03 13:40:00,
2013-03-03 08:45:00,25.6,19.0,29.96,WNW,293,2.5,6.5,76,0.00,,,0.00,WUHU216HW,2013-03-03 13:45:00,
2013-03-03 08:50:00,25.9,19.4,29.96,West,270,1.6,2.5,76,0.00,,,0.00,WUHU216HW,2013-03-03 13:50:00,
2013-03-03 08:55:00,25.7,18.5,29.96,WNW,293,1.3,4.5,74,0.00,,,0.00,WUHU216HW,2013-03-03 13:55:00,
2013-03-03 09:00:00,26.1,18.9,29.96,WNW,293,0.7,4.5,74,0.00,,,0.00,WUHU216HW,2013-03-03 14:00:00,
2013-03-03 09:05:00,26.3,18.5,29.96,WNW,293,2.0,4.0,72,0.00,,,0.00,WUHU216HW,2013-03-03 14:05:00,
2013-03-03 09:10:00,26.3,18.1,29.96,West,270,2.0,4.9,71,0.00,,,0.00,WUHU216HW,2013-03-03 14:10:00,
2013-03-03 09:15:00,26.1,17.9,29.96,East,90,4.7,5.8,71,0.00,,,0.00,WUHU216HW,2013-03-03 14:15:00,
2013-03-03 09:20:00,26.1,17.9,29.96,WNW,293,3.1,5.8,71,0.00,,,0.00,WUHU216HW,2013-03-03 14:20:00,
2013-03-03 09:25:00,26.5,18.6,29.96,West,270,1.8,5.4,72,0.00,,,0.00,WUHU216HW,2013-03-03 14:25:00,
2013-03-03 09:30:00,26.5,18.0,29.95,NNW,338,1.6,2.5,70,0.00,,,0.00,WUHU216HW,2013-03-03 14:30:00,
2013-03-03 09:35:00,26.3,18.1,29.96,SW,225,1.8,6.5,71,0.00,,,0.00,WUHU216HW,2013-03-03 14:35:00,
2013-03-03 09:39:00,26.6,18.2,29.96,West,270,2.7,2.7,70,0.00,,,0.00,WUHU216HW,2013-03-03 14:39:00,
2013-03-03 09:40:00,26.6,18.2,29.96,West,270,2.7,6.5,70,0.00,,,0.00,WUHU216HW,2013-03-03 14:40:00,
2013-03-03 09:45:00,26.6,18.2,29.96,West,270,2.7,6.5,70,0.00,,,0.00,WUHU216HW,2013-03-03 14:45:00,
2013-03-03 09:52:00,27.0,17.5,29.96,West,270,3.1,3.1,67,0.00,,,0.00,WUHU216HW,2013-03-03 14:52:00,
2013-03-03 09:57:00,27.0,18.2,29.96,SW,225,0.7,3.1,69,0.00,,,0.00,WUHU216HW,2013-03-03 14:57:00,
2013-03-03 10:02:00,27.4,18.5,29.96,West,270,3.4,3.4,69,0.00,,,0.00,WUHU216HW,2013-03-03 15:02:00,
2013-03-03 10:07:00,27.2,18.0,29.96,NW,315,1.3,4.0,68,0.00,,,0.00,WUHU216HW,2013-03-03 15:07:00,
2013-03-03 10:12:00,27.4,18.5,29.96,NW,315,0.0,4.0,69,0.00,,,0.00,WUHU216HW,2013-03-03 15:12:00,
2013-03-03 10:17:00,27.4,18.2,29.96,NW,315,0.9,2.2,68,0.00,,,0.00,WUHU216HW,2013-03-03 15:17:00,
2013-03-03 10:22:00,27.2,18.4,29.96,NW,315,0.9,2.2,69,0.00,,,0.00,WUHU216HW,2013-03-03 15:22:00,
2013-03-03 10:27:00,27.2,18.7,29.96,WNW,293,1.1,1.8,70,0.00,,,0.00,WUHU216HW,2013-03-03 15:27:00,
2013-03-03 10:32:00,26.6,18.5,29.96,NW,315,2.2,2.2,71,0.00,,,0.00,WUHU216HW,2013-03-03 15:32:00,
2013-03-03 10:37:00,26.6,18.8,29.96,West,270,0.9,3.1,72,0.00,,,0.00,WUHU216HW,2013-03-03 15:37:00,
2013-03-03 10:42:00,26.8,19.0,29.96,WNW,293,2.2,3.1,72,0.00,,,0.00,WUHU216HW,2013-03-03 15:42:00,
2013-03-03 10:47:00,26.8,19.0,29.96,West,270,3.6,3.8,72,0.00,,,0.00,WUHU216HW,2013-03-03 15:47:00,
2013-03-03 10:52:00,27.0,19.2,29.96,NW,315,1.3,3.8,72,0.00,,,0.00,WUHU216HW,2013-03-03 15:52:00,
2013-03-03 10:57:00,26.8,19.3,29.96,West,270,2.5,3.4,73,0.00,,,0.00,WUHU216HW,2013-03-03 15:57:00,
2013-03-03 11:02:00,27.2,19.6,29.96,NE,45,3.1,3.1,73,0.00,,,0.00,WUHU216HW,2013-03-03 16:02:00,
2013-03-03 11:07:00,27.4,19.8,29.96,WSW,248,1.3,4.0,73,0.00,,,0.00,WUHU216HW,2013-03-03 16:07:00,
2013-03-03 11:12:00,27.4,19.8,29.96,West,270,1.1,4.0,73,0.00,,,0.00,WUHU216HW,2013-03-03 16:12:00,
2013-03-03 11:17:00,27.2,19.4,29.96,West,270,5.4,5.4,72,0.00,,,0.00,WUHU216HW,2013-03-03 16:17:00,
2013-03-03 11:22:00,27.4,19.5,29.96,NW,315,3.8,5.4,72,0.00,,,0.00,WUHU216HW,2013-03-03 16:22:00,
2013-03-03 11:27:00,28.3,20.4,29.96,NW,315,1.3,3.8,72,0.00,,,0.00,WUHU216HW,2013-03-03 16:27:00,
2013-03-03 11:32:00,28.6,19.8,29.96,West,270,0.7,2.0,69,0.00,,,0.00,WUHU216HW,2013-03-03 16:32:00,
2013-03-03 11:37:00,28.8,20.0,29.96,NNW,338,1.8,2.0,69,0.00,,,0.00,WUHU216HW,2013-03-03 16:37:00,
2013-03-03 11:42:00,28.4,19.3,29.96,West,270,1.1,2.5,68,0.00,,,0.00,WUHU216HW,2013-03-03 16:42:00,
2013-03-03 11:47:00,28.3,19.1,29.96,West,270,0.2,2.5,68,0.00,,,0.00,WUHU216HW,2013-03-03 16:47:00,
2013-03-03 11:52:00,28.1,19.3,29.96,West,270,0.4,2.7,69,0.00,,,0.00,WUHU216HW,2013-03-03 16:52:00,
2013-03-03 11:57:00,27.9,19.4,29.96,West,270,1.6,3.8,70,0.00,,,0.00,WUHU216HW,2013-03-03 16:57:00,
2013-03-03 12:02:00,27.7,18.9,29.96,West,270,1.8,3.8,69,0.00,,,0.00,WUHU216HW,2013-03-03 17:02:00,
2013-03-03 12:07:00,27.5,19.1,29.95,West,270,1.1,3.4,70,0.00,,,0.00,WUHU216HW,2013-03-03 17:07:00,
2013-03-03 12:12:00,27.7,19.5,29.95,West,270,1.1,3.4,71,0.00,,,0.00,WUHU216HW,2013-03-03 17:12:00,
2013-03-03 12:17:00,27.7,19.5,29.95,WSW,248,2.2,4.7,71,0.00,,,0.00,WUHU216HW,2013-03-03 17:17:00,
2013-03-03 12:22:00,27.7,20.2,29.95,West,270,1.1,4.7,73,0.00,,,0.00,WUHU216HW,2013-03-03 17:22:00,
2013-03-03 12:27:00,28.4,20.3,29.95,WNW,293,2.0,3.6,71,0.00,,,0.00,WUHU216HW,2013-03-03 17:27:00,
2013-03-03 12:32:00,28.4,20.3,29.95,NW,315,0.7,3.6,71,0.00,,,0.00,WUHU216HW,2013-03-03 17:32:00,
2013-03-03 12:37:00,29.2,20.6,29.94,West,270,4.0,4.0,70,0.00,,,0.00,WUHU216HW,2013-03-03 17:37:00,
2013-03-03 12:42:00,28.6,20.2,29.94,NW,315,5.4,5.4,70,0.00,,,0.00,WUHU216HW,2013-03-03 17:42:00,
2013-03-03 12:47:00,27.9,19.7,29.94,SW,225,1.8,5.4,71,0.00,,,0.00,WUHU216HW,2013-03-03 17:47:00,
2013-03-03 12:52:00,27.7,19.9,29.94,WSW,248,4.5,5.4,72,0.00,,,0.00,WUHU216HW,2013-03-03 17:52:00,
2013-03-03 12:57:00,27.7,20.2,29.94,WSW,248,1.8,5.4,73,0.00,,,0.00,WUHU216HW,2013-03-03 17:57:00,
2013-03-03 13:02:00,28.6,21.3,29.94,WSW,248,1.1,3.4,74,0.00,,,0.00,WUHU216HW,2013-03-03 18:02:00,
2013-03-03 13:07:00,29.0,21.1,29.94,WSW,248,1.8,4.3,72,0.00,,,0.00,WUHU216HW,2013-03-03 18:07:00,
2013-03-03 13:12:00,29.2,19.9,29.94,WSW,248,3.8,4.3,68,0.00,,,0.00,WUHU216HW,2013-03-03 18:12:00,
2013-03-03 13:17:00,29.2,20.3,29.94,WNW,293,4.7,4.7,69,0.00,,,0.00,WUHU216HW,2013-03-03 18:17:00,
2013-03-03 13:22:00,28.6,19.8,29.93,WNW,293,1.3,4.7,69,0.00,,,0.00,WUHU216HW,2013-03-03 18:22:00,
2013-03-03 13:27:00,28.4,19.3,29.93,West,270,1.8,4.7,68,0.00,,,0.00,WUHU216HW,2013-03-03 18:27:00,
2013-03-03 13:32:00,28.4,19.6,29.93,NW,315,4.0,4.7,69,0.00,,,0.00,WUHU216HW,2013-03-03 18:32:00,
2013-03-03 13:37:00,28.4,20.0,29.93,East,90,1.1,4.0,70,0.00,,,0.00,WUHU216HW,2013-03-03 18:37:00,
2013-03-03 13:42:00,28.6,20.2,29.93,East,90,0.4,3.4,70,0.00,,,0.00,WUHU216HW,2013-03-03 18:42:00,
2013-03-03 13:47:00,28.1,19.6,29.93,West,270,4.0,4.3,70,0.00,,,0.00,WUHU216HW,2013-03-03 18:47:00,
2013-03-03 13:52:00,27.9,19.4,29.93,WNW,293,0.4,4.3,70,0.00,,,0.00,WUHU216HW,2013-03-03 18:52:00,
2013-03-03 13:57:00,28.1,19.6,29.93,West,270,1.3,2.9,70,0.00,,,0.00,WUHU216HW,2013-03-03 18:57:00,
2013-03-03 14:02:00,28.1,20.3,29.93,North,0,1.1,4.7,72,0.00,,,0.00,WUHU216HW,2013-03-03 19:02:00,
2013-03-03 14:08:00,27.9,20.3,29.93,NW,315,4.0,4.7,73,0.00,,,0.00,WUHU216HW,2013-03-03 19:08:00,
2013-03-03 14:13:00,27.7,20.2,29.93,WSW,248,0.4,4.0,73,0.00,,,0.00,WUHU216HW,2013-03-03 19:13:00,
2013-03-03 14:18:00,27.7,19.9,29.93,NW,315,2.2,2.2,72,0.00,,,0.00,WUHU216HW,2013-03-03 19:18:00,
2013-03-03 14:23:00,27.5,19.7,29.93,WNW,293,0.4,2.7,72,0.00,,,0.00,WUHU216HW,2013-03-03 19:23:00,
2013-03-03 14:28:00,27.7,20.2,29.93,West,270,2.5,2.7,73,0.00,,,0.00,WUHU216HW,2013-03-03 19:28:00,
2013-03-03 14:33:00,27.4,19.5,29.93,NW,315,2.9,2.9,72,0.00,,,0.00,WUHU216HW,2013-03-03 19:33:00,
2013-03-03 14:38:00,27.2,19.4,29.93,WSW,248,2.0,4.9,72,0.00,,,0.00,WUHU216HW,2013-03-03 19:38:00,
2013-03-03 14:43:00,27.0,19.2,29.93,WSW,248,3.4,4.9,72,0.00,,,0.00,WUHU216HW,2013-03-03 19:43:00,
2013-03-03 14:48:00,27.2,19.4,29.94,WSW,248,1.1,3.6,72,0.00,,,0.00,WUHU216HW,2013-03-03 19:48:00,
2013-03-03 14:53:00,27.7,20.2,29.94,WSW,248,0.2,1.8,73,0.00,,,0.00,WUHU216HW,2013-03-03 19:53:00,
2013-03-03 14:58:00,27.7,19.9,29.94,WNW,293,2.9,3.4,72,0.00,,,0.00,WUHU216HW,2013-03-03 19:58:00,
2013-03-03 15:03:00,27.7,19.9,29.94,West,270,1.8,3.4,72,0.00,,,0.00,WUHU216HW,2013-03-03 20:03:00,
2013-03-03 15:08:00,27.4,19.5,29.94,WNW,293,2.7,6.0,72,0.00,,,0.00,WUHU216HW,2013-03-03 20:08:00,
2013-03-03 15:13:00,27.0,19.2,29.94,West,270,1.8,6.0,72,0.00,,,0.00,WUHU216HW,2013-03-03 20:13:00,
2013-03-03 15:18:00,27.2,19.4,29.94,West,270,1.1,3.4,72,0.00,,,0.00,WUHU216HW,2013-03-03 20:18:00,
2013-03-03 15:23:00,27.2,19.6,29.94,WNW,293,1.1,3.4,73,0.00,,,0.00,WUHU216HW,2013-03-03 20:23:00,
2013-03-03 15:28:00,27.2,20.0,29.94,West,270,0.9,1.3,74,0.00,,,0.00,WUHU216HW,2013-03-03 20:28:00,
2013-03-03 15:33:00,27.2,20.0,29.94,NW,315,4.5,4.5,74,0.00,,,0.00,WUHU216HW,2013-03-03 20:33:00,
2013-03-03 15:38:00,27.2,20.3,29.94,West,270,1.1,4.5,75,0.00,,,0.00,WUHU216HW,2013-03-03 20:38:00,
2013-03-03 15:43:00,27.2,20.0,29.94,WSW,248,1.1,2.0,74,0.00,,,0.00,WUHU216HW,2013-03-03 20:43:00,
2013-03-03 15:48:00,27.2,20.0,29.94,West,270,0.9,3.6,74,0.00,,,0.00,WUHU216HW,2013-03-03 20:48:00,
2013-03-03 15:53:00,27.4,19.8,29.94,West,270,0.9,3.6,73,0.00,,,0.00,WUHU216HW,2013-03-03 20:53:00,
2013-03-03 15:58:00,27.4,19.5,29.94,West,270,0.4,1.1,72,0.00,,,0.00,WUHU216HW,2013-03-03 20:58:00,
2013-03-03 16:03:00,27.7,20.2,29.94,West,270,0.7,1.1,73,0.00,,,0.00,WUHU216HW,2013-03-03 21:03:00,
2013-03-03 16:08:00,27.7,19.9,29.94,West,270,0.4,5.4,72,0.00,,,0.00,WUHU216HW,2013-03-03 21:08:00,
2013-03-03 16:13:00,27.7,20.2,29.94,SW,225,1.1,5.4,73,0.00,,,0.00,WUHU216HW,2013-03-03 21:13:00,
2013-03-03 16:17:00,27.4,19.5,29.94,WNW,293,4.0,6.7,72,0.00,,,0.00,WUHU216HW,2013-03-03 21:17:00,
2013-03-03 16:22:00,27.4,19.2,29.94,West,270,1.6,6.7,71,0.00,,,0.00,WUHU216HW,2013-03-03 21:22:00,
2013-03-03 16:27:00,27.4,19.5,29.94,WSW,248,1.8,5.8,72,0.00,,,0.00,WUHU216HW,2013-03-03 21:27:00,
2013-03-03 16:32:00,27.4,19.2,29.94,West,270,0.4,3.6,71,0.00,,,0.00,WUHU216HW,2013-03-03 21:32:00,
2013-03-03 16:37:00,27.4,19.2,29.95,NW,315,2.2,3.8,71,0.00,,,0.00,WUHU216HW,2013-03-03 21:37:00,
2013-03-03 16:42:00,27.2,19.4,29.94,NW,315,2.2,3.8,72,0.00,,,0.00,WUHU216HW,2013-03-03 21:42:00,
2013-03-03 16:48:00,27.2,19.4,29.95,WNW,293,2.5,4.3,72,0.00,,,0.00,WUHU216HW,2013-03-03 21:48:00,
2013-03-03 16:53:00,27.4,19.2,29.95,WNW,293,2.5,4.3,71,0.00,,,0.00,WUHU216HW,2013-03-03 21:53:00,
2013-03-03 16:58:00,27.4,19.2,29.95,West,270,0.7,4.0,71,0.00,,,0.00,WUHU216HW,2013-03-03 21:58:00,
2013-03-03 17:03:00,27.5,19.4,29.95,SW,225,0.0,1.3,71,0.00,,,0.00,WUHU216HW,2013-03-03 22:03:00,
2013-03-03 17:08:00,27.7,19.5,29.95,WNW,293,0.2,1.3,71,0.00,,,0.00,WUHU216HW,2013-03-03 22:08:00,
2013-03-03 17:13:00,27.5,19.1,29.95,WSW,248,0.7,2.2,70,0.00,,,0.00,WUHU216HW,2013-03-03 22:13:00,
2013-03-03 17:18:00,27.5,19.4,29.95,WSW,248,1.1,2.2,71,0.00,,,0.00,WUHU216HW,2013-03-03 22:18:00,
2013-03-03 17:23:00,27.5,19.4,29.96,West,270,1.1,2.7,71,0.00,,,0.00,WUHU216HW,2013-03-03 22:23:00,
2013-03-03 17:28:00,27.4,19.2,29.96,NNW,338,0.9,2.7,71,0.00,,,0.00,WUHU216HW,2013-03-03 22:28:00,
2013-03-03 17:33:00,27.4,18.9,29.96,West,270,1.1,1.8,70,0.00,,,0.00,WUHU216HW,2013-03-03 22:33:00,
2013-03-03 17:38:00,27.2,18.7,29.96,NNE,23,2.9,2.9,70,0.00,,,0.00,WUHU216HW,2013-03-03 22:38:00,
2013-03-03 17:43:00,27.0,18.5,29.96,West,270,1.8,3.4,70,0.00,,,0.00,WUHU216HW,2013-03-03 22:43:00,
2013-03-03 17:48:00,27.0,19.2,29.96,WNW,293,0.4,3.8,72,0.00,,,0.00,WUHU216HW,2013-03-03 22:48:00,
2013-03-03 17:53:00,26.8,19.0,29.96,West,270,3.1,3.8,72,0.00,,,0.00,WUHU216HW,2013-03-03 22:53:00,
2013-03-03 17:58:00,26.6,18.8,29.96,SW,225,2.7,4.0,72,0.00,,,0.00,WUHU216HW,2013-03-03 22:58:00,
2013-03-03 18:03:00,26.6,18.8,29.96,NW,315,0.9,4.0,72,0.00,,,0.00,WUHU216HW,2013-03-03 23:03:00,
2013-03-03 18:08:00,26.6,18.5,29.96,WSW,248,2.5,2.5,71,0.00,,,0.00,WUHU216HW,2013-03-03 23:08:00,
2013-03-03 18:13:00,26.8,18.6,29.96,West,270,0.4,2.5,71,0.00,,,0.00,WUHU216HW,2013-03-03 23:13:00,
2013-03-03 18:18:00,26.8,18.6,29.96,WNW,293,0.0,1.8,71,0.00,,,0.00,WUHU216HW,2013-03-03 23:18:00,
2013-03-03 18:23:00,26.8,18.6,29.97,NW,315,0.7,2.2,71,0.00,,,0.00,WUHU216HW,2013-03-03 23:23:00,
2013-03-03 18:28:00,26.8,18.4,29.97,West,270,4.0,4.0,70,0.00,,,0.00,WUHU216HW,2013-03-03 23:28:00,
2013-03-03 18:33:00,26.8,18.4,29.97,WNW,293,6.3,6.3,70,0.00,,,0.00,WUHU216HW,2013-03-03 23:33:00,
2013-03-03 18:38:00,26.8,18.4,29.97,West,270,1.3,6.3,70,0.00,,,0.00,WUHU216HW,2013-03-03 23:38:00,
2013-03-03 18:43:00,26.8,18.4,29.97,NW,315,2.0,2.9,70,0.00,,,0.00,WUHU216HW,2013-03-03 23:43:00,
2013-03-03 18:48:00,26.8,18.4,29.97,WNW,293,1.3,4.0,70,0.00,,,0.00,WUHU216HW,2013-03-03 23:48:00,
2013-03-03 18:53:00,26.6,18.8,29.98,NW,315,1.6,4.0,72,0.00,,,0.00,WUHU216HW,2013-03-03 23:53:00,
2013-03-03 18:58:00,26.5,18.9,29.98,West,270,0.7,3.4,73,0.00,,,0.00,WUHU216HW,2013-03-03 23:58:00,
2013-03-03 19:03:00,26.3,19.1,29.98,NW,315,2.5,4.0,74,0.00,,,0.00,WUHU216HW,2013-03-04 00:03:00,
2013-03-03 19:08:00,26.3,19.4,29.98,NNW,338,1.1,4.0,75,0.00,,,0.00,WUHU216HW,2013-03-04 00:08:00,
2013-03-03 19:13:00,26.1,19.2,29.98,West,270,3.1,4.3,75,0.00,,,0.00,WUHU216HW,2013-03-04 00:13:00,
2013-03-03 19:18:00,26.1,19.2,29.98,West,270,0.7,4.3,75,0.00,,,0.00,WUHU216HW,2013-03-04 00:18:00,
2013-03-03 19:23:00,26.1,19.2,29.99,NW,315,0.9,3.8,75,0.00,,,0.00,WUHU216HW,2013-03-04 00:23:00,
2013-03-03 19:28:00,26.1,19.5,29.99,West,270,2.0,2.7,76,0.00,,,0.00,WUHU216HW,2013-03-04 00:28:00,
2013-03-03 19:33:00,25.9,19.6,29.99,West,270,0.0,2.7,77,0.00,,,0.00,WUHU216HW,2013-03-04 00:33:00,
2013-03-03 19:38:00,25.9,20.0,29.99,West,270,0.0,2.7,78,0.00,,,0.00,WUHU216HW,2013-03-04 00:38:00,
2013-03-03 19:43:00,25.9,20.3,29.99,NW,315,0.9,2.0,79,0.00,,,0.00,WUHU216HW,2013-03-04 00:43:00,
2013-03-03 19:48:00,25.7,20.1,30.00,NW,315,2.2,2.2,79,0.00,,,0.00,WUHU216HW,2013-03-04 00:48:00,
2013-03-03 19:53:00,25.6,20.0,30.00,WSW,248,2.0,3.4,79,0.00,,,0.00,WUHU216HW,2013-03-04 00:53:00,
2013-03-03 19:58:00,25.4,19.8,29.99,West,270,3.6,3.6,79,0.00,,,0.00,WUHU216HW,2013-03-04 00:58:00,
2013-03-03 20:03:00,25.4,19.8,30.00,NW,315,1.3,4.5,79,0.00,,,0.00,WUHU216HW,2013-03-04 01:03:00,
2013-03-03 20:08:00,25.4,20.1,29.99,WNW,293,1.8,4.5,80,0.00,,,0.00,WUHU216HW,2013-03-04 01:08:00,
2013-03-03 20:13:00,25.4,20.1,30.00,WNW,293,3.4,3.4,80,0.00,,,0.00,WUHU216HW,2013-03-04 01:13:00,
2013-03-03 20:18:00,25.4,20.1,30.00,NW,315,2.0,3.4,80,0.00,,,0.00,WUHU216HW,2013-03-04 01:18:00,
2013-03-03 20:23:00,25.2,19.6,30.00,NW,315,2.2,2.9,79,0.00,,,0.00,WUHU216HW,2013-03-04 01:23:00,
2013-03-03 20:28:00,25.2,19.6,30.00,NW,315,4.0,4.0,79,0.00,,,0.00,WUHU216HW,2013-03-04 01:28:00,
2013-03-03 20:33:00,25.2,19.6,30.00,NNW,338,4.5,4.5,79,0.00,,,0.00,WUHU216HW,2013-03-04 01:33:00,
2013-03-03 20:38:00,25.2,19.6,30.01,NW,315,3.4,4.7,79,0.00,,,0.00,WUHU216HW,2013-03-04 01:38:00,
2013-03-03 20:43:00,25.2,19.6,30.00,WNW,293,4.5,6.7,79,0.00,,,0.00,WUHU216HW,2013-03-04 01:43:00,
2013-03-03 20:48:00,25.2,19.6,30.01,SW,225,2.2,6.7,79,0.00,,,0.00,WUHU216HW,2013-03-04 01:48:00,
2013-03-03 20:52:00,25.0,19.4,30.01,NW,315,4.0,4.0,79,0.00,,,0.00,WUHU216HW,2013-03-04 01:52:00,
2013-03-03 20:53:00,25.0,19.4,30.01,NW,315,4.0,4.3,79,0.00,,,0.00,WUHU216HW,2013-03-04 01:53:00,
2013-03-03 20:58:00,25.0,19.4,30.01,NW,315,4.0,4.3,79,0.00,,,0.00,WUHU216HW,2013-03-04 01:58:00,
2013-03-03 21:05:00,24.8,19.3,30.01,NNW,338,1.3,1.3,79,0.00,,,0.00,WUHU216HW,2013-03-04 02:05:00,
2013-03-03 21:10:00,24.8,19.3,30.01,WSW,248,0.4,2.5,79,0.00,,,0.00,WUHU216HW,2013-03-04 02:10:00,
2013-03-03 21:15:00,24.8,19.3,30.01,NNW,338,3.4,4.0,79,0.00,,,0.00,WUHU216HW,2013-03-04 02:15:00,
2013-03-03 21:20:00,24.8,19.3,30.01,WNW,293,2.9,4.3,79,0.00,,,0.00,WUHU216HW,2013-03-04 02:20:00,
2013-03-03 21:25:00,24.7,19.1,30.01,NW,315,0.4,4.3,79,0.00,,,0.00,WUHU216HW,2013-03-04 02:25:00,
2013-03-03 21:30:00,24.7,19.1,30.01,NNW,338,0.2,5.4,79,0.00,,,0.00,WUHU216HW,2013-03-04 02:30:00,
2013-03-03 21:35:00,24.7,19.1,30.01,NW,315,1.1,5.4,79,0.00,,,0.00,WUHU216HW,2013-03-04 02:35:00,
2013-03-03 21:40:00,24.7,19.1,30.02,West,270,0.4,2.5,79,0.00,,,0.00,WUHU216HW,2013-03-04 02:40:00,
2013-03-03 21:45:00,24.7,19.1,30.02,NW,315,3.6,3.6,79,0.00,,,0.00,WUHU216HW,2013-03-04 02:45:00,
2013-03-03 21:50:00,24.7,19.1,30.02,NW,315,1.1,3.6,79,0.00,,,0.00,WUHU216HW,2013-03-04 02:50:00,
2013-03-03 21:55:00,24.5,18.3,30.02,WSW,248,0.4,3.6,77,0.00,,,0.00,WUHU216HW,2013-03-04 02:55:00,
2013-03-03 22:00:00,24.7,18.5,30.01,West,270,3.1,3.6,77,0.00,,,0.00,WUHU216HW,2013-03-04 03:00:00,
2013-03-03 22:05:00,24.5,18.0,30.01,WNW,293,1.1,3.4,76,0.00,,,0.00,WUHU216HW,2013-03-04 03:05:00,
2013-03-03 22:10:00,24.5,17.6,30.01,NW,315,1.6,3.4,75,0.00,,,0.00,WUHU216HW,2013-03-04 03:10:00,
2013-03-03 22:15:00,24.5,17.6,30.02,WNW,293,0.7,4.0,75,0.00,,,0.00,WUHU216HW,2013-03-04 03:15:00,
2013-03-03 22:18:00,24.5,17.6,30.02,NW,315,0.7,0.7,75,0.00,,,0.00,WUHU216HW,2013-03-04 03:18:00,
2013-03-03 22:20:00,24.5,17.6,30.02,NW,315,0.7,4.0,75,0.00,,,0.00,WUHU216HW,2013-03-04 03:20:00,
2013-03-03 22:25:00,24.5,17.6,30.02,NW,315,0.7,1.3,75,0.00,,,0.00,WUHU216HW,2013-03-04 03:25:00,
2013-03-03 22:45:00,24.1,18.5,30.02,WSW,248,1.1,1.1,79,0.00,,,0.00,WUHU216HW,2013-03-04 03:45:00,
2013-03-03 22:50:00,24.1,18.5,30.02,NNW,338,1.6,3.6,79,0.00,,,0.00,WUHU216HW,2013-03-04 03:50:00,
2013-03-03 22:55:00,23.9,18.7,30.02,NW,315,0.4,3.6,80,0.00,,,0.00,WUHU216HW,2013-03-04 03:55:00,
2013-03-03 23:00:00,23.9,19.0,30.01,NW,315,1.1,2.5,81,0.00,,,0.00,WUHU216HW,2013-03-04 04:00:00,
2013-03-03 23:05:00,23.8,18.5,30.01,NNW,338,0.2,2.5,80,0.00,,,0.00,WUHU216HW,2013-03-04 04:05:00,
2013-03-03 23:10:00,23.8,18.8,30.01,West,270,0.2,1.8,81,0.00,,,0.00,WUHU216HW,2013-03-04 04:10:00,
2013-03-03 23:15:00,23.8,18.8,30.02,SW,225,0.7,1.8,81,0.00,,,0.00,WUHU216HW,2013-03-04 04:15:00,
2013-03-03 23:20:00,23.8,18.8,30.01,West,270,0.2,2.5,81,0.00,,,0.00,WUHU216HW,2013-03-04 04:20:00,
2013-03-03 23:25:00,23.6,18.9,30.02,West,270,0.7,2.5,82,0.00,,,0.00,WUHU216HW,2013-03-04 04:25:00,
2013-03-03 23:30:00,23.6,19.2,30.01,West,270,2.0,2.0,83,0.00,,,0.00,WUHU216HW,2013-03-04 04:30:00,
2013-03-03 23:35:00,23.6,19.2,30.02,West,270,1.1,2.0,83,0.00,,,0.00,WUHU216HW,2013-03-04 04:35:00,
2013-03-03 23:40:00,23.8,19.4,30.01,NW,315,0.2,1.1,83,0.00,,,0.00,WUHU216HW,2013-03-04 04:40:00,
2013-03-03 23:45:00,23.6,19.2,30.02,NW,315,1.8,1.8,83,0.00,,,0.00,WUHU216HW,2013-03-04 04:45:00,
2013-03-03 23:50:00,23.4,19.0,30.01,WNW,293,0.2,1.8,83,0.00,,,0.00,WUHU216HW,2013-03-04 04:50:00,
2013-03-03 23:55:00,23.2,19.1,30.01,NW,315,2.9,2.9,84,0.00,,,0.00,WUHU216HW,2013-03-04 04:55:00,